Weather observations for the past three days for
Watsonville, Watsonville Municipal Airport
Metric (Imperial)
Date Time (pdt) Wind (kph) Vis. (km) Weather Sky Cond. Temperature (ºC) Relative Humidity Wind Chill (°C) Heat Index (°C) Pressure Precipitation (cm)
Air Dwpt 6 hour altimeter (cm) sea level (mb) 1 hr 3 hr 6 hr
Max. Min.
05 03:53 Calm 16.09 Overcast FEW036 OVC110 11.7 9.4 86% 76.15 1015.2
05 02:53 Calm 16.09 Partly Cloudy FEW028 SCT037 12.2 9.4 83% 76.15 1015.2
05 01:53 Calm 16.09 Mostly Cloudy BKN028 BKN120 12.2 9.4 83% 76.17 1015.6
05 00:53 E 6 16.09 Overcast OVC110 12.2 9.4 83% 76.2 1015.8
04 23:53 NE 6 16.09 Overcast OVC120 12.2 9.4 83% 76.17 1015.6
04 22:53 E 7 16.09 Partly Cloudy SCT110 12.2 9.4 17.2 12.2 83% 76.17 1015.6
04 21:53 SE 7 16.09 Partly Cloudy SCT044 12.2 8.9 80% 76.2 1015.7
04 20:53 SW 6 16.09 Partly Cloudy SCT043 12.8 9.4 80% 76.15 1015.2
04 19:53 Calm 16.09 Fair CLR 12.8 8.9 77% 76.15 1015.1
04 18:53 W 7 16.09 Fair CLR 14.4 8.3 67% 76.12 1014.8
04 17:53 W 19 16.09 Fair CLR 15.6 7.2 58% 76.15 1015.3
04 16:53 SW 19 16.09 Fair CLR 16.7 8.3 18.3 16.7 58% 76.15 1015.2
04 15:53 W 22 16.09 Fair CLR 16.7 8.9 60% 76.17 1015.5
04 14:53 SW 22 16.09 Fair CLR 17.2 8.9 58% 76.2 1015.9
04 13:53 W 20 16.09 Fair CLR 17.8 8.9 56% 76.2 1016.0
04 12:53 W 19 G 30 16.09 Fair CLR 17.2 8.9 58% 76.23 1016.1
04 11:53 SW 19 16.09 A Few Clouds FEW050 16.7 8.3 58% 76.23 1016.2
04 10:53 SW 15 16.09 A Few Clouds FEW023 16.1 8.9 16.7 8.3 63% 76.23 1016.1
04 09:53 Calm 16.09 Partly Cloudy FEW020 SCT041 16.1 9.4 65% 76.2 1015.7
04 08:53 Calm 16.09 Overcast OVC013 13.3 8.9 75% 76.2 1016.0
04 07:53 E 6 16.09 Mostly Cloudy BKN014 11.7 8.9 83% 76.2 1015.9
04 06:53 Calm 16.09 Overcast OVC024 10 7.8 86% 76.2 1015.7
04 05:53 NW 6 16.09 A Few Clouds FEW023 8.9 7.8 93% 76.15 1015.2
04 04:53 N 6 16.09 Overcast FEW015 SCT026 OVC046 10 7.8 10 8.3 86% 76.15 1015.3
04 03:53 N 7 16.09 Overcast FEW012 BKN029 OVC048 8.9 7.2 89% 8 76.15 1015.3
04 02:53 Calm 16.09 Mostly Cloudy FEW016 BKN049 8.9 7.2 89% 76.17 1015.4
04 01:53 Calm 16.09 Overcast OVC049 8.9 6.7 86% 76.17 1015.6
04 00:53 N 6 16.09 Fair CLR 9.4 7.2 86% 76.2 1015.9
03 23:53 Calm 16.09 Fair CLR 9.4 7.2 86% 76.17 1015.6
03 22:53 N 6 16.09 Fair CLR 10 7.8 15.6 10 86% 76.2 1015.7
03 21:53 N 6 16.09 A Few Clouds FEW017 11.7 8.9 83% 76.17 1015.4
03 20:53 W 7 16.09 Fair CLR 11.1 8.3 83% 76.12 1014.7
03 19:53 W 9 16.09 Fair CLR 12.2 7.8 75% 76.07 1014.1
03 18:53 W 11 16.09 Fair CLR 14.4 7.8 65% 76.07 1014.0
03 17:53 W 17 16.09 Overcast OVC050 15 8.9 67% 76.05 1013.9
03 16:53 SW 13 16.09 Overcast OVC050 15.6 7.8 18.3 15.6 60% 76.05 1013.8
03 15:53 W 20 G 33 16.09 Fair CLR 17.2 6.7 50% 76.05 1013.8
03 14:53 W 17 G 31 16.09 Overcast OVC048 16.7 7.8 56% 76.07 1014.1
03 13:53 SW 17 G 26 16.09 Mostly Cloudy FEW021 SCT027 BKN050 17.8 9.4 58% 76.05 1013.9
03 12:53 SW 17 16.09 Overcast SCT017 OVC047 15.6 10 70% 76.1 1014.4
03 11:53 W 19 16.09 Mostly Cloudy FEW025 BKN049 16.7 9.4 62% 76.07 1014.3
03 10:53 W 19 G 30 16.09 Overcast FEW022 OVC047 15.6 8.9 16.1 11.7 65% 76.07 1014.2
03 09:53 W 7 16.09 Overcast FEW020 OVC045 15.6 8.9 65% 76.05 1013.9
03 08:53 W 9 16.09 Overcast FEW009 BKN024 OVC029 12.8 10.6 87% 76.05 1014.0
03 07:53 SW 11 11.27 Light Rain SCT008 BKN012 OVC017 11.7 10.6 93% 76.02 1013.5
03 06:53 W 6 16.09 Overcast OVC032 12.2 10 87% 75.97 1012.7
03 05:53 Calm 16.09 Overcast FEW009 OVC031 11.7 10 89% 75.92 1012.1
03 04:53 W 6 16.09 Overcast SCT019 OVC026 11.7 10 12.8 11.7 89% 75.9 1011.8
03 03:53 Calm 16.09 Overcast OVC020 12.2 10 87% 75.9 1011.9
03 02:53 W 6 16.09 Overcast OVC018 12.2 9.4 83% 75.9 1011.8
03 01:53 Calm 16.09 Overcast OVC017 12.8 9.4 80% 75.92 1012.1
03 00:53 Calm 16.09 Overcast OVC018 12.8 9.4 80% 75.95 1012.5
02 23:53 E 7 16.09 Overcast OVC019 12.8 9.4 80% 75.95 1012.5
02 22:53 E 7 16.09 Overcast OVC019 12.8 8.9 16.7 12.2 77% 75.97 1012.6
02 21:53 E 11 16.09 Mostly Cloudy BKN022 12.8 9.4 80% 75.97 1012.9
02 20:53 SE 9 16.09 Overcast OVC020 12.8 9.4 80% 75.95 1012.3
02 19:53 S 9 16.09 A Few Clouds FEW020 12.2 9.4 83% 75.92 1011.9
02 18:53 SW 13 16.09 Mostly Cloudy BKN021 13.3 9.4 77% 75.9 1011.9
02 17:53 SW 17 16.09 Fair CLR 14.4 9.4 72% 75.92 1012.0
02 16:53 SW 17 16.09 Fair CLR 16.1 10 16.7 13.9 67% 75.92 1012.2
02 15:53 SW 13 16.09 Partly Cloudy SCT017 16.7 10.6 67% 75.97 1012.9
02 14:53 W 15 16.09 Overcast OVC016 15.6 10.6 72% 76.07 1014.0
02 13:53 SW 11 16.09 Overcast OVC018 16.1 10.6 70% 76.07 1014.2
02 12:53 W 11 16.09 Overcast OVC014 15 10.6 75% 76.15 1015.2
02 11:53 SW 13 16.09 Overcast OVC014 13.9 10 78% 76.17 1015.4
02 10:53 SW 7 16.09 Overcast OVC014 13.9 10 13.9 11.7 78% 76.15 1015.3
02 09:53 SW 13 16.09 Overcast OVC014 12.8 10 83% 76.15 1015.0
02 08:53 W 7 14.48 Overcast OVC010 12.2 10.6 90% 76.12 1014.8
02 07:53 SW 6 11.27 Overcast OVC006 11.7 10.6 93% 76.07 1014.2
02 06:53 Calm 6.44 Fog/Mist OVC008 11.7 11.1 96% 76.05 1013.9
02 05:53 Calm 8.05 Fog/Mist OVC005 11.7 10.6 93% 76.05 1013.8
02 04:53 NE 6 8.05 Fog/Mist OVC007 12.2 10.6 12.8 11.7 90% 76 1013.2
Date Time (pdt) Wind (kph) Vis. (km) Weather Sky Cond. Air Dwpt Max. Min. Relative Humidity Wind Chill (°C) Heat Index (°C) altimeter (cm) sea level (mb) 1 hr 3 hr 6 hr
6 hour
Temperature (ºC) Pressure Precipitation (cm)